Volver al catálogo

ORBCOMM FM 115

ActivoComunicacionesLEO
NORAD 41186·PAYLOAD·🇺🇸 United States

Lanzado Dec 22, 2015 desde Cape Canaveral Space Force Station

Loading…

Próximos Pases (próximas 24 horas)

TLE

ActualizadoSource: Space-Track

Época: Sep 14, 2026, 03:13 UTC

1 41186U 15081H   26257.13432665  .00000340  00000-0  99116-4 0  9994
2 41186  46.9992  38.9124 0000862 322.2209  37.8618 14.63358741574241

Sigue ORBCOMM FM 115 en tiempo real con AllMySat

Download on the App Store